Weather History for Gunnison, CO

Change the Weather History Date:

Friday, March 16, 2012

  Actual Average Record
Temperature  
Mean Temperature 40 °F -  
Max Temperature 60 °F 43 °F 60 °F (2012)
Min Temperature 19 °F 16 °F 0 °F (2008)
Degree Days  
Heating Degree Days 26    
Moisture  
Dew Point 17 °F    
Average Humidity 48    
Maximum Humidity 86    
Minimum Humidity 15    
Precipitation  
Precipitation 0.00 in - - ()
Sea Level Pressure  
Sea Level Pressure 30.13 in    
Wind  
Wind Speed 3 mph (SW)    
Max Wind Speed 17 mph    
Max Gust Speed 24 mph    
Visibility 10 miles    
Events      
Averages and records for this station are not official NWS values.
T = Trace of Precipitation, MM = Missing Value Source: NWS Daily Summary

Daily Weather History Graph

Daily Weather History Graph

Search for Another Location

Airport:

Trip Planner

Search our weather history database for the weather conditions in past years. The results will help you decide how hot, cold, wet, or windy it might be!

Date:

Astronomy

Mar. 16, 2012 Rise Set
Actual Time 7:16 AM MDT 7:16 PM MDT
Civil Twilight 6:50 AM MDT 7:42 PM MDT
Nautical Twilight 6:19 AM MDT 8:13 PM MDT
Astronomical Twilight 5:48 AM MDT 8:44 PM MDT
Moon 3:33 AM MDT (3/16) 1:43 PM MDT (3/16)
Length of Visible Light 12h 52m
Length of Day
11h 59m
Waning Crescent, 32% of the Moon is Illuminated
Mar 16
Waning Crescent
Mar 22
New
Mar 30
First Quarter
Apr 6
Full
Apr 13
Last Quarter

Hourly Weather History & Observations

Time (MDT) Temp. Windchill Dew Point Humidity Pressure Visibility Wind Dir Wind Speed Gust Speed Precip Events Conditions
12:15 AM 30.2 °F - 19.4 °F 64% 30.23 in 10.0 mi Calm Calm - N/A   Clear
12:35 AM 30.2 °F - 19.4 °F 64% 30.22 in 10.0 mi Calm Calm - N/A   Clear
12:55 AM 26.6 °F 22.6 °F 15.8 °F 64% 30.22 in 10.0 mi East 3.5 mph - N/A   Clear
1:15 AM 26.6 °F 22.6 °F 17.6 °F 69% 30.22 in 10.0 mi SSE 3.5 mph - N/A   Clear
1:35 AM 26.6 °F - 19.4 °F 74% 30.22 in 10.0 mi Calm Calm - N/A   Clear
1:55 AM 26.6 °F - 19.4 °F 74% 30.22 in 10.0 mi Calm Calm - N/A   Clear
2:35 AM 26.6 °F - 17.6 °F 69% 30.22 in 10.0 mi Calm Calm - N/A   Clear
2:55 AM 23.0 °F - 14.0 °F 68% 30.22 in 10.0 mi Calm Calm - N/A   Clear
3:15 AM 24.8 °F 17.9 °F 15.8 °F 69% 30.21 in 10.0 mi ENE 5.8 mph - N/A   Clear
3:35 AM 24.8 °F - 17.6 °F 74% 30.21 in 10.0 mi Calm Calm - N/A   Clear
3:55 AM 24.8 °F - 17.6 °F 74% 30.21 in 10.0 mi Calm Calm - N/A   Clear
4:15 AM 23.0 °F - 15.8 °F 74% 30.20 in 10.0 mi Calm Calm - N/A   Clear
4:35 AM 23.0 °F - 17.6 °F 80% 30.21 in 10.0 mi Calm Calm - N/A   Clear
4:55 AM 24.8 °F - 17.6 °F 74% 30.20 in 10.0 mi Calm Calm - N/A   Clear
5:15 AM 23.0 °F - 17.6 °F 80% 30.20 in 10.0 mi Calm Calm - N/A   Clear
5:35 AM 21.2 °F 16.4 °F 15.8 °F 80% 30.20 in 10.0 mi East 3.5 mph - N/A   Clear
5:55 AM 19.4 °F - 14.0 °F 80% 30.20 in 10.0 mi Calm Calm - N/A   Clear
6:15 AM 21.2 °F - 15.8 °F 80% 30.20 in 10.0 mi Calm Calm - N/A   Clear
6:35 AM 21.2 °F - 15.8 °F 80% 30.21 in 10.0 mi Calm Calm - N/A   Clear
6:55 AM 21.2 °F - 17.6 °F 86% 30.21 in 10.0 mi Calm Calm - N/A   Clear
7:15 AM 19.4 °F - 14.0 °F 80% 30.21 in 10.0 mi Calm Calm - N/A   Clear
7:35 AM 19.4 °F - 15.8 °F 86% 30.21 in 10.0 mi Calm Calm - N/A   Clear
7:55 AM 19.4 °F - 14.0 °F 80% 30.21 in 10.0 mi Calm Calm - N/A   Clear
8:15 AM 23.0 °F - 17.6 °F 80% 30.21 in 10.0 mi Calm Calm - N/A   Clear
8:35 AM 24.8 °F - 17.6 °F 74% 30.21 in 10.0 mi Calm Calm - N/A   Clear
8:55 AM 26.6 °F - 19.4 °F 74% 30.21 in 10.0 mi Calm Calm - N/A   Clear
9:35 AM 30.2 °F - 19.4 °F 64% 30.20 in 10.0 mi Calm Calm - N/A   Clear
9:55 AM 33.8 °F - 19.4 °F 56% 30.19 in 10.0 mi Calm Calm - N/A   Clear
10:15 AM 35.6 °F - 21.2 °F 56% 30.19 in 10.0 mi Calm Calm - N/A   Clear
10:35 AM 37.4 °F - 17.6 °F 45% 30.18 in 10.0 mi Calm Calm - N/A   Clear
10:55 AM 39.2 °F 35.9 °F 17.6 °F 42% 30.17 in 10.0 mi North 4.6 mph - N/A   Clear
11:15 AM 42.8 °F - 19.4 °F 39% 30.16 in 10.0 mi Calm Calm - N/A   Clear
11:35 AM 44.6 °F - 21.2 °F 39% 30.15 in 10.0 mi Calm Calm - N/A   Clear
11:55 AM 46.4 °F - 19.4 °F 34% 30.14 in 10.0 mi Calm Calm - N/A   Clear
12:15 PM 48.2 °F - 21.2 °F 34% 30.12 in 10.0 mi Calm Calm - N/A   Clear
12:35 PM 50.0 °F - 19.4 °F 30% 30.11 in 10.0 mi SSE 3.5 mph - N/A   Clear
12:55 PM 51.8 °F - 19.4 °F 28% 30.09 in 10.0 mi Calm Calm - N/A   Clear
1:15 PM 53.6 °F - 21.2 °F 28% 30.08 in 10.0 mi SW 9.2 mph - N/A   Clear
1:35 PM 57.2 °F - 19.4 °F 23% 30.06 in 10.0 mi West 10.4 mph 16.1 mph N/A   Clear
1:55 PM 57.2 °F - 17.6 °F 21% 30.05 in 10.0 mi West 10.4 mph 17.3 mph N/A   Clear
2:15 PM 59.0 °F - 17.6 °F 20% 30.04 in 10.0 mi West 13.8 mph 23.0 mph N/A   Clear
2:35 PM 60.8 °F - 17.6 °F 19% 30.03 in 10.0 mi SW 17.3 mph 20.7 mph N/A   Clear
2:55 PM 60.8 °F - 17.6 °F 19% 30.02 in 10.0 mi SW 15.0 mph 19.6 mph N/A   Clear
3:15 PM 60.8 °F - 17.6 °F 19% 30.02 in 10.0 mi SSW 10.4 mph 18.4 mph N/A   Clear
3:35 PM 60.8 °F - 17.6 °F 19% 30.01 in 10.0 mi SW 11.5 mph 17.3 mph N/A   Clear
3:55 PM 60.8 °F - 14.0 °F 16% 30.01 in 10.0 mi SW 17.3 mph 24.2 mph N/A   Clear
4:15 PM 60.8 °F - 14.0 °F 16% 30.01 in 10.0 mi West 10.4 mph 19.6 mph N/A   Clear
4:35 PM 60.8 °F - 12.2 °F 15% 30.00 in 10.0 mi SW 11.5 mph 19.6 mph N/A   Clear
4:55 PM 60.8 °F - 12.2 °F 15% 30.00 in 10.0 mi WSW 13.8 mph - N/A   Clear
5:15 PM 60.8 °F - 12.2 °F 15% 30.00 in 10.0 mi WSW 16.1 mph 23.0 mph N/A   Clear
5:35 PM 59.0 °F - 12.2 °F 16% 29.99 in 10.0 mi West 16.1 mph 24.2 mph N/A   Clear
5:55 PM 59.0 °F - 10.4 °F 15% 29.99 in 10.0 mi WSW 10.4 mph - N/A   Clear
6:15 PM 57.2 °F - 12.2 °F 17% 30.00 in 10.0 mi WNW 13.8 mph 17.3 mph N/A   Clear
6:35 PM 55.4 °F - 10.4 °F 17% 30.00 in 10.0 mi WSW 10.4 mph - N/A   Clear
6:55 PM 55.4 °F - 10.4 °F 17% 30.00 in 10.0 mi WSW 5.8 mph - N/A   Clear
7:15 PM 53.6 °F - 12.2 °F 19% 30.00 in 10.0 mi Calm Calm - N/A   Clear
7:35 PM 48.2 °F - 12.2 °F 24% 30.01 in 10.0 mi Calm Calm - N/A   Clear
7:55 PM 46.4 °F 43.5 °F 15.8 °F 29% 30.01 in 10.0 mi SSE 5.8 mph - N/A   Clear
8:15 PM 46.4 °F 45.2 °F 15.8 °F 29% 30.02 in 10.0 mi SSE 3.5 mph - N/A   Clear
8:35 PM 44.6 °F 43.1 °F 15.8 °F 31% 30.03 in 10.0 mi SSE 3.5 mph - N/A   Clear
8:55 PM 44.6 °F 42.2 °F 15.8 °F 31% 30.03 in 10.0 mi NNE 4.6 mph - N/A   Clear
9:15 PM 42.8 °F 41.1 °F 15.8 °F 34% 30.04 in 10.0 mi North 3.5 mph - N/A   Clear
9:35 PM 41.0 °F - 15.8 °F 36% 30.04 in 10.0 mi Calm Calm - N/A   Clear
9:55 PM 39.2 °F 35.9 °F 17.6 °F 42% 30.05 in 10.0 mi North 4.6 mph - N/A   Clear
10:15 PM 37.4 °F 33.8 °F 15.8 °F 41% 30.04 in 10.0 mi North 4.6 mph - N/A   Clear
10:35 PM 37.4 °F - 15.8 °F 41% 30.05 in 10.0 mi Calm Calm - N/A   Clear
10:55 PM 35.6 °F 31.7 °F 17.6 °F 48% 30.04 in 10.0 mi NE 4.6 mph - N/A   Clear
11:15 PM 33.8 °F - 17.6 °F 52% 30.04 in 10.0 mi Calm Calm - N/A   Clear
11:35 PM 30.2 °F 26.7 °F 15.8 °F 55% 30.04 in 10.0 mi NE 3.5 mph - N/A   Clear
11:55 PM 33.8 °F - 17.6 °F 52% 30.04 in 10.0 mi Calm Calm - N/A   Clear